Simultaneous Nadir Overpasses (SNOs) Predictions

Prediction of SNOs near equator between AQUA and NPP Satellite Orbit:

Table of predicted SNOs near equator for the next 14.0 days since TLE Epoch: 7/31/2021
Index Date (AQUA) Time (AQUA) AQUA Lat,Lon Date (NPP) Time (NPP) NPP Lat,Lon Distance(km) Time Diff (sec)
1 08/02/2021 00:08:40 -3.96, 21.13 08/01/2021 23:59:18 -3.89, 20.84 33.36 562
2 08/02/2021 00:56:55 -0.64,-170.28 08/02/2021 00:48:48 -0.78,-170.83 63.15 487
3 08/02/2021 01:45:02 5.17, -1.65 08/02/2021 01:38:11 5.34, -2.47 92.73 411
4 08/04/2021 15:42:16 27.42, -35.97 08/04/2021 15:32:16 27.46, -36.37 38.81 600
5 08/04/2021 16:24:42 -2.32, 137.35 08/04/2021 16:15:47 -2.25, 136.97 43.67 535
6 08/04/2021 17:12:57 -2.28, -54.05 08/04/2021 17:05:17 -2.42, -54.69 73.35 460
7 08/07/2021 07:52:36 5.22, 84.96 08/07/2021 07:42:52 5.16, 84.75 23.94 584
8 08/07/2021 08:40:43 -0.69,-106.42 08/07/2021 08:32:15 -0.61,-106.90 54.08 508
9 08/07/2021 09:28:58 -3.91, 62.18 08/07/2021 09:21:45 -4.06, 61.44 83.56 433
10 08/10/2021 00:08:38 3.59,-158.81 08/09/2021 23:59:21 3.53,-159.12 34.36 557
11 08/10/2021 00:56:45 0.93, 9.81 08/10/2021 00:48:44 1.03, 9.24 64.51 481
12 08/10/2021 01:45:00 -5.53, 178.41 08/10/2021 01:38:14 -5.70, 177.58 93.72 406
13 08/12/2021 15:38:47 -15.15, 146.94 08/12/2021 15:28:47 -15.19, 146.69 27.08 600
14 08/12/2021 16:24:40 1.98, -42.59 08/12/2021 16:15:50 1.89, -42.98 44.87 530
15 08/12/2021 17:12:46 2.61, 126.04 08/12/2021 17:05:12 2.72, 125.38 74.82 454
